Weather Roundup
Issued by NWS

Home | Current Version | Previous Version | Graphics & Text | Print | Product List | Glossary Off
Versions: 1 2 3 4 5 6 7 8 9 10 11 12 13 14 15 16 17 18 19 20 21 22 23 24 25 26 27 28 29 30 31 32 33 34 35 36 37 38 39 40 41 42 43 44 45 46 47 48 49 50

014
NZUS93 KARX 102359
HRRWXR

CURRENT HOURLY OBSERVATIONS ACROSS
MUCH OF THE UPPER MISSISSIPPI VALLEY
NATIONAL WEATHER SERVICE LA CROSSE WI
600 PM CST WED FEB 10 2016


...SOUTHEAST MINNESOTA...


CITY           SKY/WX    TMP DP  RH WIND       PRES   REMARKS
ROCHESTER      PTCLDY     5  -3  69 N7        30.11R WCI  -7
ROCHESTER/MAYO MOCLDY     9  -2  61 N3        30.13R
WINONA         PTCLDY    12   1  62 CALM      30.17R
AUSTIN         CLEAR      7   0  72 N3        30.10R
ALBERT LEA     PTCLDY    10   1  67 NE5       30.11R WCI   2
DODGE CENTER   MOCLDY     7  -4  61 N8        30.10R WCI  -6
PRESTON        CLEAR      4  -4  67 N5        30.11R WCI  -5
OWATONNA       MOCLDY     9   0  66 NE5       30.13R WCI   0
FARIBAULT        N/A     10   0  61 NE6       30.14R WCI   1
$$

...ELSEWHERE IN MINNESOTA...


CITY           SKY/WX    TMP DP  RH WIND       PRES   REMARKS
MINNEAPOLIS    CLOUDY    12  -2  53 N8        30.17R WCI   0
INTNL FALLS    CLEAR     -7 -14  71 CALM      30.21R
DULUTH         PTCLDY     5 -10  50 N7        30.12R WCI  -7
RED WING       CLOUDY     9  -6  52 CALM      30.17R
REDWOOD FALLS  CLOUDY    13   2  61 NE6       30.15R WCI   4
MANKATO        CLOUDY    12   0  57 NE6       30.14R WCI   3
WORTHINGTON    CLOUDY    10   3  72 NE10      30.10R WCI  -3
FAIRMONT       CLOUDY    10   0  61 NE3       30.11R
$$

...SOUTHWEST WISCONSIN...


CITY           SKY/WX    TMP DP  RH WIND       PRES   REMARKS
LA CROSSE      PTCLDY     8  -3  61 NW7       30.15R WCI  -3
PRAIRIE DU CHI CLEAR     12  -3  50 NW6       30.13R WCI   3
BOSCOBEL       CLEAR     12  -4  48 N5        30.14R WCI   4
LONE ROCK      NOT AVBL
PLATTEVILLE    PTCLDY    12   1  62 N3        30.08R
FORT MC COY    CLEAR     11  -1  57 N5        30.12R WCI   3
VIROQUA        FAIR       6  -4  62 CALM      30.07R
WIS DELLS      MOCLDY    11  -4  50 N5        30.07S WCI   3
$$

...ELSEWHERE IN WISCONSIN...


CITY           SKY/WX    TMP DP  RH WIND       PRES   REMARKS
MILWAUKEE      MOCLDY    12  -2  53 NW8       30.10R WCI   0
MADISON        PTCLDY    11  -3  53 NW5       30.09R WCI   3
GREEN BAY      PTCLDY     7  -6  55 NW5       30.08R WCI  -2
EAU CLAIRE     CLEAR      7  -4  60 NW5       30.14R WCI  -2
BLACK RVR FLS  FAIR      10  -4  54 NW3       30.13R
MEDFORD        CLEAR      7  -4  59 N7        30.04R WCI  -4
WAUSAU         CLEAR     11  -3  53 N6        30.05R WCI   1
WIS RAPIDS     CLOUDY     8  -5  55 NW5       30.10R WCI   0
MARSHFIELD     PTCLDY     8  -5  55 NW6       30.07R WCI  -2
RICE LAKE      CLEAR      9  -3  58 NW3       30.15R
$$

...NORTHEAST IOWA...


CITY           SKY/WX    TMP DP  RH WIND       PRES   REMARKS
WATERLOO       CLEAR     10  -2  58 N7        30.13R WCI  -1
DUBUQUE        CLEAR     11   0  61 NW6       30.09R WCI   1
DECORAH        CLOUDY     9  -4  56 N6        30.09R WCI  -1
MASON CITY     CLEAR      6  -1  73 NE5       30.12R WCI  -3
CHARLES CITY   CLOUDY     9  -2  61 N7        30.11R WCI  -3
OELWEIN        MOCLDY    10   0  61 N8        30.10R WCI  -1
$$

...ELSEWHERE IN IOWA...


CITY           SKY/WX    TMP DP  RH WIND       PRES   REMARKS
DES MOINES     CLOUDY    19  11  70 E9        30.09R WCI   8
IOWA CITY      CLOUDY    18   3  52 W5        30.14R WCI  11
FORT DODGE     CLOUDY    12   5  73 E9        30.12R WCI   0
MARSHALLTOWN   CLOUDY    13   7  77 NE8       30.11R WCI   2
CEDAR RAPIDS   CLOUDY    15   4  61 NW6       30.11R WCI   6
$$

...NORTHERN ILLINOIS...


CITY           SKY/WX    TMP DP  RH WIND       PRES   REMARKS
CHICAGO-OHARE  MOCLDY    14   1  56 N12       30.08R WCI   0
CHICAGO-MIDWAY PTCLDY    17   1  49 NW12      30.09R WCI   4
MOLINE         MOCLDY    18   2  49 NW9       30.12R WCI   7
ROCKFORD       PTCLDY    13   1  59 NW9       30.12R WCI   1
PEORIA         CLOUDY    19   3  49 W5        30.12R WCI  12
$$

NOTE: "FAIR" INDICATES FEW OR NO CLOUDS BELOW 12,000 FEET WITH NO
SIGNIFICANT WEATHER AND/OR OBSTRUCTIONS TO VISIBILITY. WIND
SPEEDS ARE IN MILES-PER-HOUR.




USA.gov is the U.S. government's official web portal to all federal, state and local government web resources and services.